Location: Bonac
(42.8765°N, 0.9753°E)
Time: 14:50:06
(UTC+00:00)

USA 215 - Pass Details

Date: 12 January 2026
Orbit: 1098 x 1109 km, 123.0° (Epoch: 10 January)

Event Time Altitude Azimuth Distance (km) Brightness Sun altitude
Exits shadow 19:58:06 41° 342° (NNW) 1,557 4.1 -35.0°
Maximum altitude 19:58:23 41° 335° (NNW) 1,552 4.1 -35.1°
Drops below altitude 10° 20:04:24 10° 268° (W) 2,957 6.3 -36.2°
Sets 20:07:00 0° 262° (W) 3,912 7.1 -36.6°
